Theta_e
322 321 319 318 319 321 320 319 320 321 320 319 320 321 321 320 320 320 319 319 319 318 317 317 316 316 315 314 314 313 311 311 313 312 312 314 314 313 311 310 311 312 310 310 310 311 311 311 310 309 307 306 307 309 308 308 308 309 309 308 308 308 308 307 308 308 307 307 308 308 307 306 305 305 304 304 304 305 307 307 308 308 309 309 309
323 323 322 321 321 321 320 320 319 320 320 320 319 320 321 320 320 320 320 319 320 319 319 319 319 318 318 317 316 316 315 314 314 313 312 312 313 313 313 310 311 313 312 311 310 309 310 310 310 311 309 305 306 308 308 307 308 308 307 307 306 307 307 307 307 307 307 307 307 306 306 305 304 304 304 304 305 306 307 307 307 307 308 308 308
323 323 323 322 322 322 322 321 320 320 320 320 320 320 321 320 319 319 320 320 320 320 320 320 320 319 319 319 318 317 317 316 316 315 314 313 312 313 313 311 312 313 312 312 311 309 309 309 309 309 309 307 305 306 308 308 308 308 307 307 306 306 306 306 306 306 306 306 306 305 305 304 303 303 303 305 305 306 306 306 307 307 307 308 308
322 322 322 322 323 323 322 321 321 321 321 321 320 320 321 320 319 319 320 320 321 320 320 320 320 320 320 320 319 319 318 318 317 317 316 315 313 313 313 312 312 312 312 312 312 311 310 309 308 308 308 308 306 305 307 308 308 308 308 306 305 305 305 305 305 305 305 304 304 304 303 302 302 303 304 304 304 304 305 305 306 306 307 307 307
321 321 321 322 323 321 321 321 320 321 321 321 321 321 322 321 320 320 320 321 321 321 321 320 320 321 320 320 320 319 319 319 318 318 317 317 316 314 314 313 313 313 312 312 312 312 311 310 309 309 308 309 308 306 306 308 308 308 307 304 303 303 303 304 304 304 303 302 302 301 300 300 300 301 302 302 302 302 303 304 304 305 305 306 306
321 321 321 322 320 318 320 320 320 320 320 320 320 321 322 322 321 321 321 320 320 320 320 321 321 321 321 320 320 320 319 319 319 319 318 318 317 316 315 314 314 314 313 312 311 312 311 310 310 309 308 309 309 307 307 307 307 307 304 301 299 299 299 300 299 299 298 299 299 298 297 297 297 297 298 298 298 299 300 300 301 302 303 303 304
321 321 320 320 319 317 319 320 320 320 319 319 320 320 320 322 322 322 322 321 321 320 320 320 321 322 321 320 320 320 320 320 319 319 319 318 318 317 316 315 314 315 314 313 311 311 311 310 310 310 309 308 308 307 307 306 306 305 302 298 295 295 295 295 295 295 295 296 296 296 296 296 296 296 296 296 296 297 298 298 299 299 299 300 301
321 321 320 320 320 320 320 320 321 320 319 319 320 320 320 321 321 321 321 320 319 319 319 319 319 320 320 320 319 319 319 318 319 319 319 318 318 317 317 316 315 315 315 314 312 312 311 310 310 310 308 308 308 307 306 306 305 303 300 296 294 293 293 293 294 295 295 295 296 296 297 297 297 297 297 297 298 298 298 298 299 299 298 298 298
321 321 321 320 320 320 321 321 321 321 321 321 322 322 321 321 321 321 320 320 319 319 319 319 319 318 319 318 318 317 317 317 318 319 319 318 318 317 317 316 315 315 315 315 313 312 312 311 310 310 309 308 307 307 305 305 305 303 299 296 295 294 294 295 296 296 295 295 296 297 297 297 298 298 298 299 299 299 299 299 299 299 299 298 298
319 319 319 320 321 322 322 323 322 322 321 320 319 319 319 320 321 320 320 321 321 321 321 321 321 320 320 319 319 319 318 318 319 319 319 318 318 318 317 316 316 315 315 314 313 312 312 311 311 310 309 308 307 306 305 304 303 302 300 298 297 296 297 297 297 296 296 296 296 297 297 297 298 298 298 298 299 299 299 299 299 299 299 298 298
313 313 312 315 319 320 319 318 319 318 317 314 313 314 314 316 316 316 317 318 318 318 318 319 319 320 320 320 320 320 320 320 320 319 319 319 318 318 318 317 317 316 316 315 313 312 312 311 311 310 309 307 306 305 304 304 303 302 300 299 298 299 299 299 297 296 296 296 296 296 297 297 297 297 298 298 298 299 299 298 298 298 298 298 298
310 310 310 310 312 312 311 312 313 312 312 311 312 313 313 314 314 314 315 315 316 317 317 318 319 319 320 320 320 321 320 320 320 320 320 320 319 319 318 318 318 317 316 315 314 313 312 311 310 309 308 307 305 305 304 304 303 302 300 299 299 300 300 300 298 297 296 296 296 296 296 297 297 298 298 298 298 298 298 298 298 298 298 298 298
308 308 308 307 308 307 307 308 309 309 309 310 311 311 311 311 311 311 311 311 313 315 317 318 319 319 320 320 321 321 321 320 320 321 320 320 319 319 318 318 318 317 316 315 313 312 311 310 309 308 307 306 305 305 304 304 303 302 300 300 300 301 301 300 299 297 297 296 296 296 296 297 297 297 297 297 297 297 297 297 297 297 297 297 297
307 307 307 307 307 307 306 307 308 307 308 308 308 308 308 308 308 308 308 308 309 311 313 315 317 317 318 320 321 321 320 320 320 320 320 320 319 319 318 318 318 317 317 315 313 312 310 309 308 307 306 305 304 304 304 303 302 301 300 300 300 301 301 300 299 297 297 296 296 296 296 297 297 297 297 297 296 296 295 295 295 295 295 296 296
307 307 308 307 307 307 307 307 307 307 307 307 307 307 307 307 307 307 307 307 308 308 309 310 313 314 316 318 320 320 319 319 319 319 319 319 318 318 318 318 317 316 315 313 311 310 308 307 307 307 306 305 304 304 303 302 301 301 300 300 300 301 300 299 298 297 297 296 296 296 296 296 296 296 296 296 295 295 294 293 293 293 294 294 295
306 306 307 307 307 307 307 307 307 308 308 307 307 306 306 307 306 306 306 306 306 307 307 308 309 312 314 316 318 319 318 317 317 317 318 318 318 317 316 315 315 314 312 311 309 308 308 308 307 307 305 304 303 302 302 301 301 301 300 301 301 300 300 298 297 297 297 297 297 296 296 296 296 296 295 295 295 294 293 292 292 292 292 292 293
306 306 306 306 307 307 307 306 307 308 308 308 307 307 306 306 306 306 305 305 305 306 306 307 307 309 312 314 315 317 317 316 316 316 317 317 316 315 314 313 311 311 310 309 308 308 306 306 306 304 303 302 302 301 301 301 301 301 301 300 300 299 298 298 297 297 297 296 296 296 296 295 295 295 294 294 293 292 292 291 291 292 292 291 292
305 306 306 306 306 306 306 306 307 308 308 308 307 307 307 307 307 306 305 304 305 306 307 307 307 307 310 313 314 314 315 316 316 316 316 316 315 314 312 310 308 307 307 306 305 304 304 303 303 302 302 301 301 301 301 301 300 300 299 299 298 297 297 296 296 296 296 295 295 294 294 293 293 293 292 292 292 291 291 291 291 291 291 291 291
305 305 305 305 305 306 306 306 306 307 307 307 308 307 307 307 307 306 306 305 305 306 306 306 307 307 309 312 314 314 314 315 315 315 314 313 313 312 310 309 307 305 304 304 302 302 302 302 302 302 302 302 302 301 301 300 299 299 298 297 296 296 295 295 294 294 293 293 293 293 292 292 292 292 292 292 292 292 291 291 291 291 291 291 292
304 304 305 305 305 305 306 306 306 306 306 306 307 306 307 307 306 307 307 307 307 307 306 306 307 309 309 311 314 315 314 314 313 313 312 311 310 310 309 308 306 304 303 302 302 301 301 301 300 300 300 300 300 299 298 298 297 297 296 295 295 294 293 293 293 292 292 292 292 292 292 292 292 292 292 292 292 292 292 292 292 291 291 291 291
304 304 304 304 304 305 305 306 306 306 305 305 306 305 305 306 307 308 308 308 308 307 306 306 308 309 310 311 313 313 313 312 311 309 309 308 307 307 306 305 304 303 301 300 300 299 299 298 298 297 297 297 297 296 296 296 296 295 295 294 293 293 293 292 292 292 292 292 292 292 292 292 292 292 292 292 292 292 292 292 292 292 292 291 291
304 304 304 304 305 305 305 305 306 305 305 305 305 305 305 306 307 308 308 308 308 307 307 307 308 309 309 310 311 311 310 308 307 306 306 306 305 305 304 303 302 302 301 298 297 297 297 296 296 295 295 295 295 295 295 295 295 294 294 293 293 292 292 292 292 292 292 292 292 292 292 292 292 292 292 292 292 292 292 292 292 292 292 292 292
303 304 304 305 305 305 305 305 305 305 305 305 305 305 305 305 307 308 308 308 307 307 307 308 308 308 308 309 309 308 306 304 304 303 303 303 303 303 303 301 299 299 299 296 295 295 295 295 295 295 295 296 295 295 294 294 293 293 293 293 293 293 292 292 292 292 291 291 291 291 291 291 292 292 292 292 292 292 291 291 291 291 292 292 292
303 303 304 304 304 304 304 305 305 304 304 304 304 304 304 304 305 307 308 308 307 307 307 308 307 307 307 307 307 305 302 301 301 301 301 301 301 300 300 299 298 297 296 295 294 294 294 295 295 295 295 295 294 293 293 293 293 293 293 293 292 292 292 291 291 291 290 290 290 290 290 290 291 291 291 291 291 291 291 291 291 291 291 291 292
302 303 303 304 304 304 304 304 304 304 304 304 304 303 304 304 304 306 307 308 307 307 307 307 307 306 306 306 304 301 299 299 299 299 300 299 298 298 297 297 297 296 296 294 294 294 295 295 295 295 294 294 293 293 293 293 293 293 293 292 292 291 291 290 290 290 290 290 290 290 290 290 290 290 290 290 290 290 290 290 290 290 290 291 291
302 302 302 303 303 303 303 304 303 303 303 303 304 304 304 304 304 305 307 308 308 308 307 306 306 305 305 305 302 298 296 297 297 297 297 297 297 296 296 296 296 295 295 295 295 295 295 295 294 294 293 293 293 293 293 293 293 292 292 291 291 290 290 290 290 290 290 289 290 290 290 290 290 290 290 290 290 290 290 290 290 290 290 290 290
301 301 302 302 302 302 302 303 304 304 304 304 304 304 304 304 304 305 307 308 308 307 306 306 305 305 304 303 300 297 295 296 295 295 296 296 296 295 295 295 295 295 295 296 295 294 294 293 293 293 293 293 292 292 292 292 291 291 291 290 290 290 290 290 290 290 290 290 290 290 290 290 290 290 290 290 290 289 289 289 290 290 290 290 289
301 301 301 301 301 302 302 303 303 304 303 304 304 304 304 305 305 306 307 308 308 307 306 306 305 305 305 303 299 295 294 295 295 295 295 295 295 295 295 295 296 295 295 294 293 293 293 293 292 292 292 292 292 291 291 291 290 290 290 290 290 290 290 290 289 289 289 289 289 289 289 289 289 289 289 289 289 289 289 289 289 289 289 289 289
301 301 301 301 301 302 301 302 303 303 303 303 304 305 306 307 307 308 308 308 307 306 307 307 306 305 305 304 301 297 294 294 294 295 295 295 295 295 295 295 295 294 293 292 292 293 293 292 292 292 291 291 291 290 290 290 290 290 290 290 289 289 289 289 288 288 288 288 288 288 288 288 288 288 288 289 289 288 288 289 289 289 289 289 289
301 301 301 301 301 301 301 301 302 302 302 303 304 305 306 307 308 307 307 307 307 307 307 307 307 306 305 304 302 300 298 295 294 294 294 295 295 295 294 293 292 292 292 292 292 292 292 292 291 291 291 291 290 290 290 290 290 289 289 289 289 289 289 288 288 287 287 287 287 287 287 287 287 288 288 288 288 288 288 288 288 288 288 288 288
299 300 301 301 301 302 302 301 301 301 302 303 304 305 305 305 306 307 307 307 307 308 307 307 306 306 305 303 301 299 297 295 294 294 295 295 295 294 292 292 292 292 292 293 292 292 292 291 291 291 290 290 290 290 289 289 289 289 289 289 289 289 288 288 287 287 287 287 287 286 286 287 287 287 287 287 288 288 288 288 288 288 288 288 288
298 299 300 301 301 302 302 302 302 302 302 303 304 304 303 304 304 305 306 306 306 306 307 306 306 305 304 303 301 297 294 294 295 295 295 293 292 292 291 292 292 292 292 292 292 292 291 291 291 291 290 290 290 289 289 289 289 289 289 288 288 288 288 288 287 287 287 286 286 286 286 286 286 286 287 287 287 288 288 288 288 288 288 288 288
297 297 298 299 300 301 302 302 302 302 302 303 303 303 303 304 303 302 302 303 304 305 305 305 305 303 301 301 299 296 294 295 295 294 292 291 291 292 292 292 292 292 292 292 292 291 291 291 290 290 290 290 289 289 289 289 289 289 288 288 288 288 287 287 287 286 286 286 286 286 286 286 286 286 287 287 287 287 287 288 288 288 288 288 288
296 296 297 297 298 299 300 301 301 302 303 303 303 302 303 303 302 301 300 299 299 300 300 301 301 300 299 298 297 296 295 295 293 291 291 291 292 292 292 292 292 292 292 292 292 291 291 290 290 290 290 289 289 289 289 289 289 289 288 288 288 288 287 287 286 286 286 286 286 286 286 286 286 286 287 287 287 287 287 287 288 288 288 288 288
296 296 296 296 297 298 298 300 301 302 302 303 302 302 302 302 301 300 299 298 297 296 296 296 297 298 297 296 295 294 293 292 291 291 291 292 292 292 292 292 293 292 292 291 291 291 290 290 290 290 289 289 289 289 289 289 289 288 288 287 287 287 287 287 286 286 286 286 286 286 286 286 286 286 287 287 287 287 287 287 287 288 288 288 288
295 296 296 296 297 297 298 299 301 302 302 302 301 301 301 299 298 297 298 297 295 293 292 293 293 294 293 293 292 292 292 292 292 292 293 292 292 292 292 292 292 292 292 291 291 291 290 290 290 289 289 288 288 289 289 288 288 287 287 287 287 287 287 287 286 286 286 286 286 286 286 286 286 287 287 287 287 287 287 287 287 287 287 288 288
296 296 296 297 298 299 299 300 301 302 301 301 300 299 297 295 294 294 294 294 292 291 291 290 290 290 290 291 292 292 292 292 293 292 292 292 292 292 292 292 292 291 291 291 291 290 290 289 289 289 288 288 288 288 288 287 287 287 287 286 287 286 286 286 286 287 287 286 286 286 286 286 287 287 287 287 287 287 287 287 287 287 287 287 287
297 297 296 296 298 299 299 300 300 300 299 298 297 296 294 292 292 292 292 291 291 290 290 291 291 291 291 291 291 292 292 292 292 292 292 293 293 292 292 291 291 291 291 291 290 290 290 289 289 288 288 288 288 288 287 287 287 287 287 287 287 286 286 286 287 287 287 286 286 287 286 286 287 286 286 286 286 287 287 287 287 287 287 287 287
297 298 298 297 297 298 299 300 299 297 296 296 295 294 293 291 291 290 290 290 290 291 291 292 292 293 292 292 292 292 292 292 292 293 293 293 293 293 292 291 291 291 291 290 290 290 290 289 289 288 288 288 288 288 288 288 288 287 287 287 287 286 286 286 286 287 287 287 287 286 286 286 286 286 286 286 286 287 287 287 287 287 287 287 287
296 298 298 297 297 298 299 298 297 295 294 294 294 293 291 291 290 290 290 291 291 291 292 293 293 293 293 293 292 293 293 293 293 293 293 293 293 293 292 291 291 291 290 290 290 290 289 289 288 288 288 288 288 288 288 288 288 287 287 286 286 286 286 286 286 286 287 287 287 286 286 286 286 286 286 286 287 287 287 287 287 287 287 287 287
296 298 298 298 298 298 298 296 295 294 292 292 292 291 291 291 291 291 290 290 291 291 292 293 293 293 293 293 293 293 293 293 293 293 293 293 293 292 292 291 291 291 290 290 290 289 289 289 288 288 288 288 288 288 288 288 288 287 286 285 285 285 286 286 286 287 287 287 287 287 287 287 287 286 287 287 287 287 287 287 287 287 287 287 287
297 297 296 296 296 296 295 294 293 293 292 292 292 292 292 292 291 291 291 291 291 292 292 292 292 292 293 293 293 293 293 293 293 293 293 293 292 292 291 291 290 290 290 290 289 289 289 288 288 288 288 288 288 288 289 288 287 285 284 284 284 285 286 287 287 287 287 287 287 287 287 287 287 287 287 287 287 287 287 287 287 288 288 288 288
295 294 294 294 294 294 293 293 292 292 292 292 292 292 292 292 291 292 292 292 292 292 292 292 292 293 293 293 293 293 293 293 293 293 292 292 292 291 291 290 290 290 289 289 289 289 288 288 289 289 289 289 289 289 289 288 286 284 283 283 284 286 288 288 287 287 287 287 287 287 287 287 287 287 287 288 287 288 288 288 288 288 288 288 289
293 293 293 293 293 293 293 293 293 293 293 293 293 293 293 293 293 293 294 294 294 294 294 293 293 293 293 293 293 293 293 293 293 292 292 292 291 291 290 290 290 289 289 289 289 288 288 289 289 289 289 289 289 289 288 287 285 283 283 284 286 288 289 288 288 288 288 287 287 287 287 288 288 288 288 288 288 288 288 288 288 289 289 289 289
294 293 293 293 293 293 293 294 294 294 294 294 295 294 294 294 295 295 295 295 295 295 294 294 293 293 293 293 293 293 293 292 292 292 291 291 290 290 290 289 289 289 289 288 288 288 289 289 289 289 289 289 288 288 288 286 284 283 283 284 286 289 290 289 289 289 289 288 288 288 288 288 288 288 288 288 288 288 289 289 289 289 289 289 290
294 294 294 294 294 294 294 294 295 295 295 295 295 295 295 295 295 296 296 295 294 293 293 293 292 292 293 293 293 292 292 292 291 291 290 290 290 289 289 289 289 289 288 288 288 289 289 289 289 289 289 288 288 288 287 285 283 283 284 286 288 290 290 290 290 290 290 289 289 288 288 289 289 289 289 289 289 289 289 289 290 290 290 290 290
294 294 294 294 294 294 294 294 294 294 294 294 294 294 295 295 295 295 295 294 293 293 293 292 292 292 292 292 292 292 291 291 290 290 290 289 289 289 289 289 288 288 288 288 289 289 289 289 289 289 288 288 288 287 285 284 283 283 284 287 289 290 291 290 290 290 290 289 289 289 289 289 289 289 289 289 289 289 289 290 290 290 290 291 291
294 294 294 294 293 293 293 293 293 293 293 293 294 294 294 294 294 294 293 293 293 292 292 292 292 292 291 291 291 291 290 290 289 289 289 289 289 288 288 288 288 288 288 288 289 289 288 288 288 289 288 288 287 286 285 284 284 284 285 287 289 290 291 291 290 290 290 290 289 289 289 289 289 289 290 290 289 289 290 290 290 290 291 291 291
294 294 294 294 293 293 293 293 293 292 292 292 292 292 292 292 292 292 291 291 291 291 291 291 291 290 290 290 289 289 289 289 288 288 288 288 288 288 287 287 288 288 288 288 288 288 288 288 289 288 288 286 285 286 285 284 283 284 285 287 289 290 291 291 290 290 290 290 289 289 289 289 290 290 290 290 290 290 290 290 290 291 291 291 291
293 293 293 293 292 292 292 292 291 291 291 291 291 290 290 290 290 290 290 290 290 290 289 289 289 289 289 288 288 288 288 288 287 287 287 287 287 286 286 287 287 288 288 288 288 288 288 288 288 288 287 285 285 286 286 285 284 284 286 287 289 290 290 291 291 290 290 290 289 289 289 289 290 290 290 290 290 290 290 290 290 291 291 291 291
291 291 291 291 290 290 290 290 290 290 290 290 289 289 289 289 288 288 289 289 288 288 288 288 288 288 287 287 287 287 287 286 286 286 286 285 285 285 285 286 287 287 287 287 287 288 288 288 288 287 286 285 285 286 286 285 284 284 286 287 289 290 290 291 291 290 290 290 289 289 289 289 289 290 290 290 290 290 290 290 290 291 291 291 291
Wind_Speed
24 25 26 25 25 25 26 26 24 24 25 25 25 24 24 23 21 21 21 19 17 15 13 12 10 10 9 10 10 9 10 9 8 8 9 8 7 6 6 6 5 4 3 4 6 4 2 1 1 2 3 2 1 2 3 4 5 4 4 5 6 6 7 6 5 7 9 10 10 9 10 12 14 14 15 15 13 12 12 11 12 11 12 12 12
25 25 26 24 22 21 22 24 25 25 26 28 27 26 26 25 22 21 20 19 18 16 14 12 11 10 9 9 9 9 9 9 9 9 10 10 10 9 8 8 8 7 6 5 5 3 2 2 1 0 3 4 1 1 2 3 3 4 4 5 6 7 8 9 7 7 11 15 15 14 15 16 17 16 16 16 16 15 14 13 13 13 14 14 13
23 23 20 17 17 16 14 17 22 25 26 28 27 26 26 26 23 22 21 20 20 18 15 14 12 12 11 10 10 10 10 10 10 11 12 12 13 12 11 10 10 11 10 8 7 6 5 4 3 3 2 2 1 1 1 2 3 3 4 5 6 7 8 10 10 8 11 16 17 18 19 19 19 17 16 16 15 16 16 15 14 14 13 13 13
20 20 15 14 15 16 13 13 17 18 18 22 24 24 26 26 24 23 22 21 21 19 17 16 15 14 14 13 13 13 12 12 13 12 13 13 13 13 13 12 12 12 12 11 10 9 7 6 6 5 3 3 2 1 2 2 3 4 5 6 7 8 8 9 9 9 10 14 17 18 19 19 18 17 16 17 16 16 16 15 15 15 13 13 13
17 16 15 17 18 18 18 19 20 17 12 14 19 22 23 25 23 22 22 21 21 20 19 18 18 17 17 16 15 15 14 14 15 15 15 15 15 14 14 14 14 14 13 13 13 12 10 8 8 7 5 5 4 4 4 4 5 5 6 8 8 8 9 9 9 10 11 14 17 19 19 19 19 17 17 19 20 19 18 17 15 16 16 15 14
20 19 18 19 19 19 21 20 19 20 15 12 14 16 17 19 19 19 20 19 19 17 16 16 17 17 18 18 18 18 18 18 18 18 18 18 18 17 16 16 15 15 15 15 15 14 12 10 10 9 8 7 7 6 6 5 6 6 6 8 9 10 10 10 11 12 13 14 16 18 20 20 20 20 20 20 21 21 22 22 19 18 19 19 18
22 21 17 15 15 17 21 18 15 18 17 14 15 17 16 14 14 15 15 15 14 13 12 12 13 15 16 17 17 17 18 20 21 22 22 21 21 20 19 19 18 17 17 17 16 15 13 12 12 12 10 9 9 8 7 6 5 5 6 8 10 11 10 10 10 10 11 13 15 17 20 20 20 21 21 20 19 19 23 26 25 24 25 25 24
19 17 15 12 11 12 15 15 14 14 14 15 17 17 15 13 12 13 14 14 14 14 13 14 14 15 16 16 16 15 16 17 20 23 24 24 24 23 22 22 21 20 20 19 18 17 15 14 14 13 12 11 10 9 7 6 5 5 6 8 9 9 9 8 8 9 10 12 14 16 18 20 21 22 22 23 22 22 23 25 26 28 29 28 27
14 13 12 10 9 8 9 11 12 12 12 13 13 13 11 11 11 13 14 14 14 14 15 16 16 16 18 19 19 19 20 20 19 19 21 22 23 24 24 24 24 23 23 22 20 19 18 16 16 15 14 12 11 9 7 6 5 5 7 8 8 7 7 6 7 9 11 13 14 15 17 19 20 22 23 23 23 24 24 24 25 28 30 31 29
11 11 10 9 9 9 8 8 8 9 9 8 9 8 8 8 8 9 10 11 12 13 14 15 15 16 18 20 19 19 19 20 19 19 19 19 20 21 23 25 25 25 26 26 24 22 21 20 19 17 15 13 11 9 8 6 6 7 8 9 8 6 5 5 7 8 10 12 13 14 16 18 20 21 21 22 22 23 24 25 27 28 28 28 28
9 9 9 9 9 9 8 7 7 8 7 6 6 6 6 6 7 8 9 10 11 12 12 13 14 15 16 17 16 16 17 17 18 19 19 19 19 19 21 23 24 25 27 28 27 25 24 23 21 19 17 14 12 9 8 7 7 8 9 10 9 7 6 6 7 8 9 11 12 13 14 17 20 20 20 22 22 22 23 25 26 27 25 21 20
6 6 7 7 7 7 6 7 8 8 7 6 6 6 6 7 7 7 8 9 9 11 12 13 13 13 14 15 14 14 14 14 14 16 17 18 20 20 21 23 24 24 27 29 29 28 27 25 23 20 18 14 11 9 9 9 8 8 9 10 10 9 8 8 8 9 9 11 12 13 13 15 18 19 20 21 21 22 25 25 24 23 23 21 20
5 6 6 5 6 6 6 7 8 7 7 6 5 5 4 3 2 2 2 3 5 6 9 10 10 10 11 12 12 12 10 10 11 12 14 15 16 18 20 22 23 23 25 28 30 30 28 26 23 19 16 13 11 10 10 10 9 9 9 10 10 9 9 10 9 9 10 11 13 14 15 15 17 19 19 18 20 22 24 24 24 22 22 23 24
4 5 5 4 4 5 5 5 6 7 7 7 7 6 5 4 3 1 1 1 2 3 5 6 7 7 8 9 10 10 9 9 9 10 10 11 11 13 15 18 20 22 24 27 30 29 27 24 21 16 13 12 11 11 11 11 10 10 10 10 10 11 11 11 11 10 11 12 13 15 16 16 17 19 19 18 18 19 20 22 23 23 24 26 28
3 3 6 5 3 4 4 3 5 7 7 6 6 4 3 2 2 1 2 2 3 4 5 6 6 6 7 8 9 9 9 9 9 9 9 9 9 10 13 16 18 20 22 24 25 24 21 18 15 12 12 12 12 11 11 11 10 11 11 12 12 12 11 11 10 11 11 13 14 15 16 17 18 19 20 20 19 19 21 23 24 25 28 29 30
1 2 5 7 5 5 5 4 5 6 5 4 4 3 4 3 3 4 5 6 6 6 6 7 8 8 7 7 8 10 10 10 10 10 9 9 9 9 11 13 15 17 19 20 20 18 16 13 11 11 12 12 11 10 10 10 10 11 12 13 12 12 11 11 11 12 12 13 14 15 16 17 19 20 22 23 25 25 26 26 27 27 27 26 27
4 4 3 5 7 8 8 7 7 7 7 5 5 5 5 5 5 5 6 8 8 8 9 9 9 9 9 9 9 10 11 12 12 11 10 9 8 6 7 10 11 13 14 15 14 13 12 11 11 11 11 11 10 9 10 10 11 12 12 12 11 12 12 12 12 13 13 14 15 17 19 21 23 24 25 27 28 27 25 24 24 23 21 19 19
5 5 4 3 2 5 7 7 7 8 8 7 7 7 7 7 6 6 7 8 9 9 10 11 10 10 10 11 12 12 12 12 11 11 9 8 6 6 8 11 13 13 13 12 11 11 12 12 11 10 10 9 9 10 11 12 11 11 10 9 10 11 12 13 15 16 17 19 20 21 22 22 22 23 22 21 20 18 18 20 20 20 19 17 16
7 5 4 5 6 5 4 5 5 6 6 7 7 8 8 8 8 8 8 8 9 10 11 12 13 12 11 12 13 13 13 12 11 10 8 7 7 9 12 14 15 14 13 13 13 12 11 10 9 9 9 9 10 11 11 10 9 8 7 8 10 12 13 14 16 17 17 18 18 17 17 17 16 16 14 13 12 11 13 15 17 18 20 20 19
11 10 9 9 9 8 7 7 6 5 5 6 7 9 10 11 11 10 9 9 9 10 11 13 14 12 11 11 13 14 14 13 11 10 9 9 11 13 14 15 15 15 14 14 13 10 8 7 7 6 7 7 8 7 6 5 5 6 7 9 10 11 12 12 12 13 14 14 15 16 16 16 15 14 13 13 13 13 13 14 15 17 20 22 22
13 13 13 13 11 11 10 9 9 8 8 9 11 12 13 14 13 11 10 10 9 9 11 13 12 11 10 10 11 12 12 12 12 12 12 12 13 13 13 14 15 15 13 11 10 9 8 7 6 5 5 4 4 2 2 4 6 8 9 9 9 9 9 10 11 11 13 14 16 16 17 16 16 16 15 16 16 16 16 17 17 18 20 22 24
15 14 14 15 15 15 13 11 10 10 10 10 11 12 12 13 13 12 11 10 9 8 10 10 10 9 8 8 9 10 11 11 11 12 12 12 12 12 12 12 12 13 12 10 8 8 7 6 6 5 3 2 2 4 6 8 8 8 7 6 6 7 8 10 11 12 13 14 15 16 16 16 17 18 17 17 17 16 16 17 18 19 20 22 24
15 15 14 14 14 14 13 11 10 9 9 10 11 12 12 12 13 14 13 11 9 8 8 8 8 8 7 7 8 10 11 12 12 12 12 12 12 12 12 12 12 11 11 9 7 7 7 6 4 2 0 3 5 6 6 5 4 4 4 5 6 7 8 9 10 11 12 13 14 15 16 16 18 18 18 18 17 16 17 18 18 19 20 22 24
12 14 15 15 15 14 12 11 10 10 11 12 14 15 16 15 15 16 15 13 11 9 7 8 9 8 7 7 9 11 13 13 13 13 12 12 12 12 12 12 11 10 9 7 6 6 6 4 2 0 2 4 5 5 3 3 2 3 4 5 6 7 7 8 10 11 13 14 15 16 16 16 17 18 19 18 18 19 20 20 20 20 21 23 24
6 8 10 11 12 12 12 12 12 12 13 14 17 19 20 18 17 17 17 16 14 11 10 10 11 10 9 10 11 14 16 15 15 14 13 13 12 11 10 9 9 8 7 7 6 4 3 1 0 2 3 3 3 3 2 3 3 3 4 4 6 7 9 11 12 13 14 16 17 17 18 18 18 19 20 20 21 22 22 22 22 22 22 23 24
6 5 6 7 8 10 11 12 13 14 16 17 18 19 18 17 16 17 19 19 17 15 14 14 13 12 11 12 14 16 17 16 16 15 13 12 11 9 8 8 8 7 6 5 4 3 1 0 1 1 1 2 3 3 3 3 3 3 5 6 8 10 12 13 14 15 17 18 19 19 20 21 21 21 22 23 24 24 23 23 23 23 22 23 25
9 9 8 8 8 8 11 12 12 12 14 16 16 15 15 15 16 17 19 20 18 16 16 15 15 14 14 14 15 17 18 17 16 14 12 11 10 9 9 8 7 5 4 3 2 1 1 2 3 4 4 4 4 4 5 5 5 6 7 9 10 12 13 14 15 16 18 19 20 21 22 22 22 23 23 24 25 24 24 23 23 23 22 23 24
11 11 11 11 10 9 11 12 13 13 13 13 12 11 12 14 16 18 20 21 19 17 16 16 16 16 16 16 17 18 19 18 16 15 13 12 11 10 8 6 4 3 2 2 2 4 5 6 6 6 5 5 5 5 6 7 8 8 9 11 12 13 14 15 16 17 18 19 21 22 23 23 24 24 25 25 25 25 24 23 23 23 23 22 22
15 15 13 13 13 12 12 13 15 16 15 12 11 11 12 14 15 16 17 17 15 13 14 17 18 17 16 17 18 19 20 20 18 15 13 12 10 7 5 4 3 3 3 4 6 8 8 7 6 6 6 6 6 7 8 9 10 11 13 13 14 15 16 17 18 20 20 21 22 23 24 24 25 25 25 24 25 25 25 24 24 24 23 21 21
16 16 15 14 14 14 14 15 16 15 14 13 13 14 14 15 17 16 15 14 14 13 12 13 15 15 16 17 17 17 19 21 19 15 13 11 8 6 4 4 4 5 7 8 9 8 7 6 6 6 6 7 7 8 9 11 13 14 15 16 17 18 18 19 20 21 22 22 23 24 24 24 24 23 23 24 25 25 25 25 24 23 22 21 21
14 14 13 12 12 12 12 14 14 13 14 15 16 17 16 14 14 14 13 13 14 13 12 11 11 13 15 17 16 15 17 19 18 14 12 10 7 6 6 7 8 10 10 9 8 7 7 6 6 5 6 7 7 9 11 13 14 15 17 18 20 20 20 21 23 23 23 23 23 24 23 23 22 23 23 24 25 25 25 25 24 22 22 21 21
16 15 13 12 11 11 12 13 13 13 15 17 19 19 17 15 12 11 12 12 12 12 12 11 12 13 15 16 16 16 18 19 17 13 10 9 9 10 11 12 12 11 9 7 7 6 5 4 4 4 5 7 8 10 12 13 15 16 18 20 21 22 23 24 24 24 24 23 23 23 23 22 23 23 23 24 24 24 24 23 23 22 22 22 22
21 20 18 15 12 10 11 13 14 15 18 21 22 22 20 18 16 13 12 11 11 10 11 11 12 15 16 15 16 18 20 18 14 11 11 12 13 15 14 12 10 9 7 6 6 5 3 3 3 3 5 8 9 11 13 14 16 18 19 21 23 24 25 25 25 24 24 23 22 22 23 22 23 23 23 23 23 23 23 23 23 22 22 21 22
25 25 24 22 17 13 11 12 14 18 21 24 26 25 23 21 20 18 17 15 14 13 13 14 14 16 17 17 18 20 19 16 14 13 14 16 16 14 12 10 8 7 6 6 5 4 3 2 2 3 5 8 10 12 13 15 17 20 22 23 25 26 26 26 24 23 23 23 22 23 23 23 23 23 23 23 23 23 23 23 22 22 21 20 21
26 26 26 26 24 20 15 13 15 20 24 26 27 26 24 22 22 22 22 22 22 21 20 21 20 19 19 19 20 19 18 17 17 17 17 16 13 10 9 8 7 6 6 6 5 4 3 2 2 4 6 8 10 12 15 17 19 21 23 24 25 26 27 26 25 24 24 24 24 24 24 24 24 23 23 24 23 23 23 22 22 22 21 21 21
26 26 26 25 24 22 20 16 16 21 25 27 26 25 24 23 24 24 25 26 27 27 25 24 24 23 22 21 21 20 19 20 19 18 16 13 11 9 9 8 8 7 7 7 6 5 4 3 3 5 7 8 9 12 15 17 19 20 22 23 25 26 26 25 25 25 25 25 25 24 24 24 24 24 24 24 23 23 23 23 22 22 22 22 22
25 26 26 23 19 18 18 18 18 20 24 25 24 23 23 22 24 27 28 28 29 28 26 25 25 24 23 22 22 22 22 21 19 17 14 11 10 9 9 9 9 9 8 8 7 6 4 3 4 6 6 7 9 12 14 16 18 21 23 24 25 26 25 24 24 25 25 25 25 25 25 25 25 25 24 23 23 23 23 23 22 22 23 23 23
23 24 24 24 20 15 14 16 18 20 23 23 24 24 24 24 24 26 28 29 30 29 27 27 27 26 24 22 22 22 21 19 17 15 12 10 9 8 8 10 10 9 9 8 7 5 4 3 4 4 5 7 9 12 14 17 20 22 24 25 26 25 24 24 25 25 25 25 25 25 25 25 25 25 23 23 23 23 23 23 22 22 22 22 21
22 21 22 23 22 17 14 15 18 21 24 25 25 25 26 25 24 25 28 28 28 28 28 28 27 26 25 24 22 20 18 17 15 13 11 9 8 7 8 10 10 9 8 7 6 4 3 2 2 3 5 6 9 12 15 18 21 23 25 26 27 26 25 26 26 26 26 25 25 25 25 25 25 24 23 23 23 23 23 23 22 22 21 21 21
20 19 19 20 21 19 17 19 22 24 26 28 29 28 27 25 25 27 29 28 26 26 28 28 27 26 25 23 21 18 16 14 12 10 10 9 9 9 9 11 10 9 7 6 5 3 1 1 2 4 5 7 10 13 16 19 22 24 26 26 26 26 26 27 27 26 26 26 26 26 25 25 25 24 24 23 23 23 23 23 22 22 22 22 22
18 18 19 20 22 23 22 24 26 26 26 27 29 29 28 27 27 28 28 27 25 25 25 25 24 23 22 20 17 13 10 9 10 11 11 11 12 12 11 10 9 8 7 6 4 1 2 2 4 4 6 8 12 15 17 20 22 24 26 26 25 26 26 27 27 27 26 26 26 26 26 27 26 25 24 24 24 23 23 22 22 22 21 21 21
15 15 17 21 24 26 26 26 27 27 26 27 28 29 30 29 27 26 26 25 25 24 22 20 19 18 17 15 11 8 7 11 14 15 15 15 14 13 12 10 8 7 6 4 2 2 2 4 4 5 7 10 14 16 18 20 23 24 25 25 25 25 26 26 27 27 27 27 27 27 27 27 26 25 25 25 24 23 22 22 22 21 20 20 20
21 21 21 23 25 27 28 27 27 28 28 27 28 28 29 27 26 25 25 24 22 21 19 17 16 15 13 11 9 8 12 17 19 17 16 16 14 12 11 10 9 7 5 3 2 3 3 4 4 6 9 12 14 15 16 20 24 24 23 24 24 24 25 26 27 28 28 28 28 28 27 27 26 25 25 24 23 23 22 21 21 20 19 19 19
29 28 28 28 27 28 29 28 28 27 27 27 27 26 25 24 22 21 20 19 16 15 14 14 14 13 12 12 12 14 17 19 18 17 16 15 13 12 11 10 8 6 4 2 2 3 4 4 6 9 10 12 13 13 16 21 23 22 22 23 23 23 24 25 27 28 28 28 28 27 27 26 26 25 25 24 23 23 22 21 20 19 18 18 17
30 30 29 29 28 28 28 27 27 26 25 24 23 21 20 19 19 17 15 14 12 12 12 12 13 14 14 15 17 19 20 19 17 16 16 15 13 12 11 9 7 6 4 3 4 5 5 6 9 11 11 12 12 15 18 21 21 21 21 21 21 22 23 24 25 26 26 27 28 27 26 25 25 25 25 24 23 22 22 20 18 17 16 15 15
31 30 30 28 27 26 25 23 22 20 19 18 17 17 18 18 17 16 14 14 14 14 14 14 15 17 17 18 19 20 19 18 17 16 14 12 11 11 9 8 7 6 4 3 5 6 5 7 10 11 11 12 14 17 20 20 20 20 21 19 18 19 21 22 23 24 25 26 26 25 24 24 24 24 24 23 22 21 20 18 16 14 13 13 12
30 29 28 26 25 24 22 21 20 19 19 18 18 18 19 18 18 17 16 16 16 16 17 17 19 19 20 20 19 19 18 16 15 13 11 10 8 8 7 8 8 6 4 4 6 5 5 8 9 9 10 12 15 18 19 19 19 20 20 18 17 18 20 21 22 23 24 25 25 24 23 23 23 23 22 22 21 20 18 17 15 13 12 12 11
29 28 27 27 26 25 24 23 23 23 23 22 22 21 21 20 20 20 19 19 19 19 19 20 20 20 19 19 18 17 16 15 12 10 9 7 5 5 6 8 8 5 4 6 5 3 6 8 7 8 11 13 16 17 18 19 19 20 19 17 16 17 19 20 20 22 23 24 25 23 22 21 21 21 21 21 19 18 17 15 14 12 11 11 10
28 28 27 27 26 25 24 24 25 24 24 24 24 23 23 23 22 22 21 20 20 20 20 20 19 19 18 18 17 15 14 12 10 8 6 4 3 4 6 8 7 5 5 6 3 5 7 6 6 8 12 14 15 16 17 18 19 20 20 18 16 16 18 19 20 21 22 24 25 24 22 21 21 20 20 19 18 17 15 14 13 12 10 9 8
26 26 26 25 24 24 23 24 24 23 23 24 24 23 23 23 22 21 21 20 20 19 19 18 18 17 17 16 14 13 11 9 8 6 4 2 3 5 7 7 6 5 6 4 3 5 5 4 6 9 12 13 14 15 17 18 18 19 19 18 16 16 17 18 19 20 22 23 24 24 22 21 21 20 19 19 18 16 15 14 13 11 10 9 7
26 26 26 25 24 24 24 24 23 23 23 23 23 23 23 22 21 20 19 18 18 17 16 16 16 15 14 13 12 11 9 8 7 5 3 4 5 5 6 5 4 5 5 3 2 3 3 4 7 10 12 13 13 14 16 18 19 18 18 17 16 16 17 18 19 20 21 23 24 23 22 21 21 20 19 18 17 16 15 13 11 10 9 8 7
Wind_Direction
184 188 197 201 200 195 193 193 192 195 202 203 202 202 201 198 196 196 195 192 191 187 183 179 177 177 177 176 174 171 175 179 181 188 193 195 190 187 192 192 182 178 175 158 152 152 145 99 65 69 59 52 111 81 55 46 40 47 47 30 33 31 12 2 337 309 315 331 338 343 347 342 342 346 347 347 351 352 352 353 351 348 343 342 342
185 186 190 197 202 196 193 196 195 198 205 206 205 203 200 196 193 192 194 195 195 195 192 190 190 192 195 197 195 187 183 185 188 194 201 204 206 204 204 203 198 194 200 198 189 191 200 189 182 151 16 16 37 94 45 35 35 41 38 26 21 20 15 8 358 332 323 326 330 335 339 340 344 348 350 352 352 348 347 348 349 349 345 342 340
187 188 189 199 207 199 197 202 200 204 209 207 203 200 196 195 193 193 194 195 197 199 200 200 202 204 207 207 208 207 204 202 202 205 208 209 211 211 210 210 207 202 206 210 207 207 204 199 204 221 284 341 0 64 33 11 7 9 9 4 357 357 360 359 358 352 335 328 329 333 337 339 343 347 348 347 346 345 343 339 338 339 339 339 338
187 187 194 209 206 191 186 191 191 196 204 203 198 195 193 195 196 195 193 192 194 198 202 205 208 213 217 215 213 216 219 219 219 220 221 219 218 218 217 216 215 214 215 215 214 216 213 211 218 224 237 253 248 241 261 297 318 323 328 331 331 332 335 341 346 347 341 332 327 329 334 336 338 342 342 337 337 341 339 334 333 331 330 332 332
188 185 195 200 187 171 172 185 189 185 190 203 201 196 191 189 189 189 189 189 191 194 200 205 209 216 221 220 219 221 224 226 228 231 231 229 226 226 224 221 221 221 222 221 220 223 223 220 221 223 232 235 228 236 249 261 283 297 309 316 318 321 323 325 330 332 334 334 329 327 328 331 331 332 336 336 335 334 329 324 327 327 323 320 321
189 186 189 187 175 169 176 185 191 189 191 206 211 209 202 191 185 184 187 189 190 194 198 202 209 217 223 224 227 231 232 232 234 237 236 233 230 230 229 227 226 225 226 226 223 224 225 222 220 222 227 228 226 235 243 251 274 290 302 312 314 314 316 318 322 324 326 329 330 329 329 331 331 330 333 336 336 335 331 325 319 321 323 320 317
185 185 187 181 174 180 186 190 195 194 196 207 217 221 220 209 200 200 201 204 209 215 215 213 216 220 223 224 227 234 240 240 240 241 239 235 232 230 229 229 229 229 229 229 227 226 226 221 219 222 224 226 228 229 235 245 262 280 299 312 312 311 314 318 321 327 331 332 334 334 332 332 335 334 334 336 335 336 339 336 329 326 327 325 322
176 180 181 178 175 181 189 197 206 203 199 206 216 222 226 226 227 228 228 230 237 244 246 244 240 232 230 233 236 243 251 253 250 246 241 238 234 233 231 229 229 229 229 229 228 228 228 224 221 224 229 232 232 229 232 240 248 271 305 315 312 311 314 319 328 337 343 344 344 342 336 333 336 337 337 340 341 339 341 340 333 330 329 325 322
168 173 173 174 180 191 199 206 214 213 205 205 213 222 231 237 241 241 241 243 248 252 252 252 250 247 248 254 255 254 255 256 255 250 243 239 236 235 234 232 232 231 228 226 225 225 227 225 224 227 233 234 233 233 235 240 251 280 310 316 312 312 312 320 338 344 346 348 347 343 337 333 336 338 335 338 340 335 334 333 329 329 330 325 322
159 164 168 169 177 186 189 191 202 210 211 213 220 226 230 233 236 239 243 248 251 254 255 258 261 261 262 264 262 257 254 255 256 253 248 244 239 237 237 236 234 232 229 225 221 220 222 223 223 227 231 231 232 239 244 247 260 284 302 306 305 304 301 318 339 344 346 347 342 339 334 327 330 333 329 329 332 329 327 328 326 326 328 327 323
153 156 158 162 169 173 179 190 199 205 211 219 222 225 232 236 240 248 254 259 262 263 267 270 271 271 271 270 268 264 262 265 266 263 260 255 251 249 245 243 240 236 231 226 221 218 218 219 220 222 223 225 229 238 245 250 265 284 294 295 290 285 285 305 326 335 337 334 330 329 324 318 323 328 325 326 329 326 322 321 322 322 323 324 317
145 154 150 152 164 170 180 197 200 204 215 225 225 227 236 245 253 264 270 275 279 278 276 277 279 282 280 277 276 274 273 276 276 273 270 265 263 261 256 251 247 240 232 227 223 218 215 214 214 216 218 222 227 233 239 249 266 281 287 285 279 276 283 292 304 315 320 320 318 318 315 313 318 323 325 326 324 318 316 316 317 317 314 310 303
145 156 161 167 181 185 189 197 201 205 208 208 204 199 197 202 217 261 287 299 300 291 283 278 279 284 282 274 271 271 275 281 283 281 279 276 272 267 262 255 249 242 236 229 223 217 212 209 207 208 213 220 225 229 236 248 264 275 277 274 271 275 282 285 289 297 305 309 310 311 315 317 316 316 320 320 315 312 313 313 313 312 308 302 298
164 175 187 194 198 191 186 183 179 171 164 159 158 155 149 141 129 104 28 347 337 327 313 296 286 284 280 269 261 261 267 276 283 285 287 289 286 277 265 256 250 245 239 229 221 215 210 206 202 203 212 221 225 228 237 249 263 271 273 273 273 275 279 281 286 293 301 304 304 305 310 311 308 308 309 309 310 311 312 312 312 310 305 300 298
185 209 206 202 202 197 197 192 170 161 160 161 163 169 183 197 211 253 284 302 315 321 326 325 320 309 292 273 259 258 265 276 285 289 291 292 292 285 268 254 245 239 231 221 213 206 201 198 202 212 222 226 226 229 239 250 259 265 270 273 274 274 273 276 281 286 291 293 293 296 300 300 299 300 300 300 301 301 303 303 303 302 301 301 300
301 270 216 211 217 213 216 228 212 195 194 199 200 210 223 237 255 268 278 284 289 297 309 321 325 318 301 280 263 260 268 280 286 290 292 291 291 285 266 247 234 225 214 206 201 197 195 202 214 221 222 222 225 231 241 250 256 259 264 266 265 263 262 265 270 275 279 282 286 290 292 293 294 294 295 296 297 299 301 299 298 299 300 300 297
346 333 281 236 226 223 232 246 235 216 215 223 227 229 227 232 248 262 276 284 287 294 302 309 314 309 293 274 260 257 262 268 274 279 286 291 293 278 243 217 201 193 188 187 191 191 191 200 208 207 209 216 223 234 245 251 250 251 252 252 252 253 257 263 268 272 276 279 283 287 289 289 290 290 292 293 294 298 301 301 302 303 301 296 293
346 354 0 349 278 240 238 241 229 215 219 226 224 222 221 223 239 258 273 284 292 302 307 305 303 303 293 274 260 256 256 255 260 267 272 277 274 240 206 185 169 161 157 158 168 175 177 185 196 202 211 223 232 240 246 247 243 240 242 246 256 266 273 280 283 284 286 287 288 290 290 292 295 297 299 299 298 302 303 303 307 306 299 292 290
303 315 327 334 329 306 265 246 238 231 236 235 226 226 231 240 258 269 270 275 286 296 305 308 306 303 295 272 253 248 248 248 250 252 247 237 225 209 193 177 162 156 158 162 169 177 185 193 205 218 228 235 239 239 237 236 236 241 254 270 284 291 293 296 299 299 299 300 301 302 302 304 307 310 315 320 322 322 316 310 308 302 297 293 294
287 291 292 296 303 299 286 278 273 265 259 259 262 265 267 271 274 269 260 260 272 286 298 306 306 301 290 268 246 237 237 233 225 220 214 205 201 197 193 185 176 171 173 177 179 179 183 192 200 211 221 224 226 226 227 237 257 276 291 298 303 306 307 309 312 313 314 315 315 315 314 313 310 308 311 315 316 315 312 310 307 300 296 294 293
267 273 278 283 285 282 280 276 274 275 278 283 287 285 282 279 273 262 253 253 262 280 296 300 298 291 278 259 238 225 221 214 202 198 197 193 192 193 190 185 181 176 172 172 172 169 170 178 182 184 194 202 208 235 285 303 306 308 311 312 316 320 321 321 322 321 319 318 317 316 316 315 311 307 306 305 306 306 305 304 303 299 295 292 290
258 260 265 271 273 274 277 278 278 280 282 285 288 288 286 280 268 255 249 251 262 282 293 291 284 274 260 242 223 206 199 195 190 189 191 189 187 186 181 173 174 176 172 164 162 164 165 170 175 178 189 226 308 322 319 316 315 316 317 322 329 328 322 319 320 319 317 316 317 316 316 315 313 310 307 305 304 305 304 304 303 300 296 293 290
257 253 254 256 260 265 267 269 271 274 278 284 289 291 291 282 267 255 250 251 262 276 280 272 262 253 237 218 203 191 185 182 179 178 178 177 175 176 175 168 166 171 172 166 160 157 156 159 163 165 267 329 327 324 319 316 320 327 330 330 328 321 315 313 315 316 315 315 314 312 312 313 311 309 307 305 303 304 304 303 301 299 296 295 294
262 256 252 248 248 251 253 256 261 265 274 283 287 290 290 284 270 257 250 250 253 252 247 242 238 231 221 207 191 182 178 175 172 172 173 174 172 172 173 170 168 174 180 175 161 150 146 143 136 1 322 319 318 317 311 299 297 305 309 312 315 313 312 315 319 320 317 313 309 306 306 305 303 301 301 301 301 303 302 301 299 297 296 295 294
263 262 259 255 252 250 248 250 257 264 272 279 282 282 282 283 278 262 247 240 238 230 221 220 221 217 212 203 188 178 175 172 171 172 174 175 171 167 168 172 177 186 186 173 159 144 130 118 1 325 322 325 332 333 321 305 297 294 296 305 314 318 319 321 321 317 311 306 304 302 301 301 300 300 301 302 302 302 301 299 297 296 295 293 292
254 255 259 263 267 266 262 258 259 264 267 269 271 271 270 276 281 268 246 233 228 221 211 207 206 206 206 201 190 179 174 173 173 171 170 170 167 166 171 174 174 176 167 148 140 140 137 268 311 10 35 38 26 13 4 352 334 320 320 322 324 325 325 323 320 313 308 307 306 305 304 305 305 304 303 303 301 301 300 298 296 295 296 295 293
267 261 260 264 270 277 277 270 262 259 261 261 264 266 266 270 275 264 241 224 215 208 202 198 199 202 202 198 190 182 178 178 177 172 169 173 173 174 177 175 168 163 149 129 121 135 140 125 110 96 76 54 37 26 17 4 350 341 337 335 332 329 326 323 320 316 313 313 312 311 310 310 307 305 304 302 300 301 302 299 296 295 296 296 292
268 264 262 263 265 270 274 270 259 249 251 257 260 261 260 261 261 251 233 219 207 198 196 203 208 207 202 196 189 184 183 185 183 178 178 181 179 176 174 169 159 149 129 108 117 126 126 116 101 82 59 42 31 18 6 357 352 347 340 335 330 327 325 325 323 322 321 318 316 314 312 311 308 305 304 301 300 301 302 300 296 294 295 293 287
268 264 259 257 260 263 268 271 264 253 246 242 236 232 229 225 225 224 220 216 214 211 214 219 217 212 207 203 195 190 190 190 185 182 185 184 181 177 165 147 137 128 118 127 133 130 123 107 82 58 41 28 15 5 356 349 344 339 337 335 333 331 331 330 328 327 325 321 316 313 311 308 306 303 301 299 297 298 299 298 295 295 294 289 284
277 268 260 255 256 258 261 267 265 254 240 225 213 209 207 204 203 205 209 216 222 225 227 225 219 214 212 208 206 207 204 193 182 180 182 179 174 170 154 138 136 132 129 133 132 122 106 85 61 43 27 13 4 358 353 347 343 342 340 339 338 336 334 331 329 327 323 318 314 311 308 305 302 300 298 295 295 297 297 296 294 293 291 286 283
295 282 268 257 252 250 253 259 260 249 231 217 208 203 198 195 196 198 202 208 211 211 214 217 218 219 216 209 205 208 202 187 177 175 176 174 170 161 144 136 135 133 133 133 124 104 86 69 52 35 18 7 1 355 352 349 347 345 342 339 337 335 331 328 328 326 321 316 312 309 306 303 301 298 296 293 293 294 294 293 291 288 284 282 280
290 287 281 268 255 249 248 250 250 237 216 205 202 198 189 178 174 178 186 193 196 200 206 211 211 211 212 210 202 191 181 174 171 172 171 166 158 145 135 131 131 131 132 132 121 102 80 60 47 32 16 6 0 356 353 350 346 344 340 336 334 332 329 326 325 322 317 314 311 307 304 302 299 296 294 293 291 290 289 288 287 284 282 280 277
273 275 276 274 264 252 246 241 235 223 210 201 196 193 187 180 173 166 167 175 182 187 194 203 203 197 196 198 193 178 169 166 168 169 164 155 147 139 133 131 130 130 131 134 129 117 97 71 51 29 13 5 359 355 351 347 343 341 338 333 330 329 328 326 323 318 314 311 307 304 302 300 297 295 294 292 289 287 284 283 283 282 279 276 275
265 265 267 268 265 261 259 246 228 218 211 205 198 194 192 190 183 171 160 153 151 155 163 173 181 182 178 176 174 169 164 164 165 162 155 150 147 144 142 143 143 137 136 143 143 136 123 94 51 25 13 6 1 356 350 345 342 339 335 331 329 327 326 325 321 317 313 310 306 303 301 299 297 294 291 290 288 285 282 280 279 277 275 273 273
258 257 258 260 259 259 262 256 233 217 210 205 200 197 195 191 184 176 166 155 147 143 145 151 159 163 164 163 164 164 162 159 155 152 149 150 153 157 163 168 169 162 159 161 162 157 142 106 60 30 15 9 3 356 348 343 341 338 335 333 330 328 325 322 319 316 313 309 305 303 301 299 297 294 290 288 286 283 281 279 277 275 273 272 273
249 248 248 251 253 250 250 248 235 220 211 204 200 196 192 185 176 167 160 153 146 141 140 144 149 152 155 158 158 157 154 150 147 147 149 151 153 157 163 167 166 166 168 169 166 157 139 100 50 26 18 11 1 350 345 343 341 340 338 336 332 327 322 318 315 313 312 309 306 305 303 300 298 295 292 288 284 282 281 279 277 276 274 273 273
243 240 238 239 240 238 235 233 228 219 210 200 192 186 180 172 163 155 150 146 143 141 141 143 145 146 149 152 153 151 149 147 148 150 150 145 139 141 151 157 157 157 158 158 156 152 136 92 43 26 20 9 357 349 347 346 344 340 337 334 329 324 319 315 314 313 312 310 309 308 305 303 300 297 293 288 285 284 282 281 280 278 276 275 275
237 235 233 231 228 227 224 217 210 205 197 187 180 173 165 158 154 150 145 143 143 142 142 143 144 146 148 151 153 152 151 152 155 156 151 140 130 132 147 156 155 151 149 149 150 145 123 79 40 30 22 8 359 355 352 347 341 335 331 328 325 322 319 318 318 318 316 313 311 310 307 304 303 301 296 291 288 287 286 284 282 280 278 277 275
229 227 229 226 220 217 212 196 185 181 177 170 166 161 156 154 152 147 142 141 143 144 144 146 149 152 155 156 156 156 156 158 161 161 158 153 149 151 160 160 155 151 150 149 147 137 110 61 37 44 33 10 359 353 347 340 335 331 329 327 324 322 322 323 322 321 319 316 315 313 311 308 307 305 302 297 293 291 289 287 284 280 278 276 273
216 213 217 214 204 199 195 181 171 169 165 160 157 156 154 151 148 144 142 145 148 149 151 154 157 160 161 161 159 159 162 166 171 177 184 183 175 170 167 162 158 157 157 153 147 132 70 44 72 64 33 3 349 343 339 335 333 332 331 328 325 323 324 324 323 321 320 319 319 318 317 315 313 311 307 302 299 296 292 289 286 283 279 276 276
197 198 203 199 187 181 175 167 163 163 159 152 149 148 146 144 144 145 148 152 155 156 157 159 161 164 165 163 159 158 166 176 182 185 184 176 166 161 161 160 160 161 160 154 143 98 38 85 93 58 13 349 342 340 337 336 336 336 334 331 328 326 326 326 325 324 323 324 324 323 322 321 319 315 310 308 307 304 300 295 292 288 284 281 280
168 171 174 172 167 161 156 152 152 152 148 143 142 142 143 145 150 154 155 156 157 157 156 157 160 163 164 162 160 164 170 169 165 162 158 156 156 158 158 159 160 161 157 148 109 35 64 105 87 27 358 349 346 342 339 339 340 339 337 335 332 330 330 330 330 329 329 328 328 328 327 326 324 320 317 316 314 311 306 302 298 294 289 288 285
119 124 130 137 140 139 138 138 138 138 138 138 140 143 147 151 155 156 156 155 155 154 154 156 159 162 163 165 170 170 163 158 156 154 152 153 157 159 159 159 160 158 151 128 51 36 90 103 57 10 358 354 350 344 341 344 345 343 341 339 337 335 335 335 334 334 334 333 332 332 332 330 329 326 324 322 320 316 313 309 305 300 297 294 292
100 105 109 112 116 119 123 126 128 131 134 138 141 145 149 151 151 151 150 148 149 153 157 162 166 167 169 171 170 163 158 157 156 153 153 154 156 158 160 162 161 157 147 111 61 73 96 78 31 10 2 356 350 345 345 347 348 346 343 341 340 339 340 340 339 339 339 338 336 335 334 333 332 330 329 329 328 324 320 317 312 308 304 302 299
90 94 98 102 105 109 113 118 123 127 132 136 141 146 149 149 146 144 142 144 150 157 161 164 167 166 164 162 160 158 157 156 154 152 153 154 156 157 160 162 161 161 154 123 100 101 90 52 20 8 1 356 353 350 349 349 350 348 345 343 342 342 343 343 343 344 346 345 341 339 338 337 337 336 335 336 335 331 327 324 321 317 312 308 303
88 91 94 96 99 103 107 113 119 125 132 139 145 148 150 149 147 144 144 146 148 147 146 147 151 152 152 151 153 154 154 153 151 150 149 149 150 155 161 165 166 169 168 138 118 110 78 33 13 3 357 357 356 353 351 352 353 350 347 346 345 345 346 346 346 349 351 350 347 345 344 343 343 342 342 343 342 338 335 334 333 329 325 322 317
90 93 96 98 100 104 109 115 120 124 128 132 135 136 138 141 142 142 141 139 137 135 135 135 136 140 143 146 148 150 149 149 149 147 144 142 143 151 164 172 173 178 180 149 126 103 46 18 8 1 357 357 356 354 354 355 355 351 350 350 350 350 350 349 350 352 354 354 352 351 349 348 348 348 348 349 348 345 343 344 343 342 341 342 343
96 99 101 104 105 107 110 113 113 113 114 116 118 121 124 127 129 130 131 131 129 129 130 130 131 135 139 140 141 143 144 144 142 140 140 139 138 150 171 178 181 185 176 153 132 67 20 15 10 0 357 357 356 356 357 358 355 353 353 354 355 356 355 353 353 355 356 356 356 356 354 353 352 352 353 353 352 350 350 350 350 351 354 356 359
102 104 106 107 107 107 108 109 108 107 108 110 112 113 116 118 119 121 123 124 124 125 125 126 128 131 133 135 135 137 138 138 136 135 134 129 127 151 168 174 177 177 167 153 116 31 20 22 10 358 358 358 357 358 0 0 358 356 356 356 358 359 359 356 357 358 359 359 0 360 358 358 357 356 356 358 356 354 355 357 356 358 4 9 13
103 105 107 107 106 106 107 108 107 107 109 110 110 110 111 113 113 115 117 119 119 120 122 123 124 125 128 130 131 132 132 130 126 122 111 93 118 151 165 170 170 166 160 146 68 30 30 21 3 359 359 359 360 2 4 4 2 0 359 358 359 0 0 359 359 1 1 2 3 4 4 4 3 1 0 1 360 358 359 1 2 4 11 21 32
99 102 103 103 103 104 104 104 104 104 106 107 107 108 109 109 109 112 115 116 117 119 121 122 123 123 124 124 124 124 124 121 117 109 91 82 97 125 148 157 153 151 152 140 58 38 32 8 359 1 2 1 2 5 7 8 8 6 4 2 1 3 4 4 3 2 2 3 5 8 10 11 10 9 6 4 4 3 3 3 5 9 17 28 41